Home   Weather   Daegu   Past weeks

Flag for South Korea Past Weather in Daegu, South Korea — Yesterday and Last 2 Weeks

Now
43 °F

Sunny.


Feels Like: 38 °F
Forecast: 18 / 48 °F
Wind: 8 mph from Northwest

Location: Taegu Ab

Current Time: Dec 6, 2016 at 5:31:38 pm

Latest Report: Dec 6, 2016 at 5:00 pm


Visibility: 10 mi

Pressure: 30.21 "Hg

Humidity: 24%

Dew Point: 9 °F

Location of DaeguLocation

Past Weather in Daegu — Graph

°F

Daegu Temperature Yesterday

Maximum temperature yesterday: 59 °F (at 3:00 pm)
Minimum temperature yesterday: 30 °F (at 6:00 am)
Average temperature yesterday: 44 °F

High & Low Weather Summary for the Past Weeks

 TemperatureHumidityPressure
High63 °F (Nov 21, 4:00 pm)100% (Dec 1, 2:00 am)30.51 "Hg (Dec 1, 2:00 am)
Low27 °F (Nov 26, 4:00 am)15% (Dec 2, 1:00 pm)29.95 "Hg (Nov 21, 4:00 pm)
Average41 °F57%30.23 "Hg
* Reported Nov 21 4:00 pm — Dec 6 4:00 pm, Daegu, Weather by CustomWeather, © 2016

Note: Actual official high and low records may vary slightly from our data, if they occured in-between our weather recording intervals... More about our weather records

Advertising

Daegu Weather History for the Previous 24 Hours

Scroll right to see more
 ConditionsComfort  
Time TempWeatherWind HumidityBarometerVisibility
4:00 pm
Tue, Dec 6
45 °FSunny.9 mph21%30.21 "Hg10 mi
3:00 pm46 °FSunny.10 mph20%30.21 "Hg10 mi
2:00 pm45 °FSunny.13 mph21%30.24 "Hg10 mi
1:00 pm43 °FSunny.9 mph24%30.27 "Hg10 mi
12:00 pm41 °FSunny.9 mph28%30.30 "Hg10 mi
11:00 am39 °FSunny.8 mph33%30.30 "Hg10 mi
10:00 am37 °FSunny.10 mph35%30.33 "Hg10 mi
9:00 am36 °FSunny.10 mph41%30.30 "Hg10 mi
8:00 am32 °FSunny.8 mph51%30.27 "Hg10 mi
7:00 am34 °FClear.8 mph48%30.24 "Hg10 mi
6:00 am36 °FClear.9 mph52%30.24 "Hg10 mi
5:00 am36 °FClear.12 mph56%30.21 "Hg10 mi
4:00 am39 °FClear.13 mph48%30.15 "Hg10 mi
3:00 am43 °FPassing clouds.16 mph49%30.12 "HgN/A
2:00 am45 °FPassing clouds.14 mph53%30.09 "HgN/A
1:00 am46 °FPassing clouds.14 mph50%30.09 "HgN/A
12:00 am46 °FPassing clouds.15 mph46%30.07 "HgN/A
11:00 pm
Mon, Dec 5
48 °FPassing clouds.17 mph46%30.04 "HgN/A
10:00 pm52 °FPassing clouds.17 mph54%30.04 "Hg6 mi
9:00 pm52 °FPassing clouds.9 mph54%30.01 "Hg6 mi
8:00 pm54 °FPassing clouds.7 mph51%30.01 "Hg6 mi
7:00 pm54 °FPassing clouds.6 mph54%29.98 "Hg6 mi
6:00 pm52 °FPassing clouds.5 mph62%29.98 "Hg6 mi
5:00 pm55 °FPassing clouds.2 mph55%29.95 "Hg6 mi
Weather by CustomWeather, © 2016

See weather overviewHow to use our weather pages